Location: Mohawk View
(42.7837°N, 73.7885°W)
Time: 07:28:09
(UTC+00:00)

Cosmos 1455 - Pass Details

Date: 17 June 2021
Orbit: 496 x 522 km, 82.5° (Epoch: 27 July)

Event Time Altitude Azimuth Distance (km) Brightness Sun altitude
Rises 04:16:05 0° 350° (N) 2,646 7.3 -23.2°
Reaches altitude 10° 04:18:14 10° 348° (NNW) 1,750 6.0 -23.3°
Enters shadow 04:21:43 67° 311° (NW) 559 2.4 -23.4°
